Station Historical Data
Daily Summary for January 19, 2012 Units:  English    Metric   Both
« Previous Day
Next Day »
Daily Weekly Monthly Yearly Custom
  High: Low: Average:
Temperature: 55.3 °F 28.2 °F 41.4 °F
Dew Point: 41.0 °F 24.9 °F 31.8 °F
Humidity: 91% 48% 71%
Wind Speed: 13.0mph 0.0mph 3.8mph
Wind Gust: 13.0mph - -
Wind- - SSE
Pressure: 30.15 in 29.98 in -
Precipitation: 0.00 in    
Historical Graphs
 
 
Tabular Data for January 19, 2012
Time Temperature Dew Point Pressure Wind Wind Speed Wind Gust Humidity Rainfall Rate (Hourly) Conditions
00:00 30.7 °F 25.6 °F 30.15 in ESE 3.0 mph 4.0 mph 81% 0.00 in
00:02 30.8 °F 25.7 °F 30.15 in ESE 2.0 mph 4.0 mph 81% 0.00 in
00:07 30.8 °F 25.7 °F 30.15 in ESE 2.0 mph 4.0 mph 81% 0.00 in
00:12 30.8 °F 25.7 °F 30.15 in East 2.0 mph 2.0 mph 81% 0.00 in
00:17 30.7 °F 25.9 °F 30.15 in ESE 1.0 mph 3.0 mph 82% 0.00 in
00:22 30.5 °F 25.7 °F 30.15 in East 1.0 mph 2.0 mph 82% 0.00 in
00:27 30.5 °F 25.7 °F 30.15 in Calm   1.0 mph 82% 0.00 in
00:32 30.5 °F 26.0 °F 30.15 in East 2.0 mph 2.0 mph 83% 0.00 in
00:37 30.5 °F 25.7 °F 30.15 in East 1.0 mph 2.0 mph 82% 0.00 in
00:42 30.6 °F 25.8 °F 30.15 in ENE 1.0 mph 2.0 mph 82% 0.00 in
00:47 30.5 °F 26.0 °F 30.14 in Calm   1.0 mph 83% 0.00 in
00:52 30.5 °F 26.0 °F 30.14 in Calm   1.0 mph 83% 0.00 in
00:57 30.4 °F 25.9 °F 30.14 in East 1.0 mph 1.0 mph 83% 0.00 in
01:02 30.3 °F 25.8 °F 30.14 in East 2.0 mph 2.0 mph 83% 0.00 in
01:07 30.2 °F 26.0 °F 30.14 in East 1.0 mph 1.0 mph 84% 0.00 in
01:12 30.2 °F 26.0 °F 30.14 in ENE 1.0 mph 2.0 mph 84% 0.00 in
01:17 30.2 °F 26.0 °F 30.14 in East 1.0 mph 1.0 mph 84% 0.00 in
01:23 30.1 °F 25.9 °F 30.14 in East 2.0 mph 2.0 mph 84% 0.00 in
01:28 30.1 °F 26.1 °F 30.14 in ESE 1.0 mph 2.0 mph 85% 0.00 in
01:33 30.0 °F 26.0 °F 30.14 in East 1.0 mph 2.0 mph 85% 0.00 in
01:38 30.0 °F 26.0 °F 30.14 in ESE 2.0 mph 2.0 mph 85% 0.00 in
01:43 30.0 °F 26.3 °F 30.13 in East 1.0 mph 2.0 mph 86% 0.00 in
01:48 29.9 °F 26.5 °F 30.13 in East 2.0 mph 2.0 mph 87% 0.00 in
01:53 29.8 °F 26.4 °F 30.13 in ENE 2.0 mph 3.0 mph 87% 0.00 in
01:58 29.8 °F 26.4 °F 30.13 in East 1.0 mph 2.0 mph 87% 0.00 in
02:03 29.8 °F 26.4 °F 30.12 in ESE 2.0 mph 2.0 mph 87% 0.00 in
02:08 29.7 °F 26.6 °F 30.13 in ESE 1.0 mph 2.0 mph 88% 0.00 in
02:13 29.8 °F 26.4 °F 30.13 in ESE 1.0 mph 2.0 mph 87% 0.00 in
02:18 29.8 °F 26.4 °F 30.13 in East 1.0 mph 2.0 mph 87% 0.00 in
02:23 29.9 °F 26.5 °F 30.13 in East 2.0 mph 2.0 mph 87% 0.00 in
02:28 29.8 °F 26.4 °F 30.13 in East 1.0 mph 2.0 mph 87% 0.00 in
02:33 29.8 °F 26.4 °F 30.13 in ESE 1.0 mph 2.0 mph 87% 0.00 in
02:38 29.7 °F 26.3 °F 30.13 in ESE 1.0 mph 2.0 mph 87% 0.00 in
02:43 29.6 °F 26.5 °F 30.13 in ESE 3.0 mph 3.0 mph 88% 0.00 in
02:48 29.6 °F 26.2 °F 30.13 in East 2.0 mph 3.0 mph 87% 0.00 in
02:53 29.6 °F 26.2 °F 30.13 in ESE 2.0 mph 3.0 mph 87% 0.00 in
02:58 29.6 °F 25.9 °F 30.13 in East 2.0 mph 2.0 mph 86% 0.00 in
03:03 29.6 °F 25.9 °F 30.13 in ESE 2.0 mph 3.0 mph 86% 0.00 in
03:08 29.4 °F 25.7 °F 30.12 in SE 3.0 mph 3.0 mph 86% 0.00 in
03:14 29.4 °F 25.7 °F 30.13 in ESE 2.0 mph 3.0 mph 86% 0.00 in
03:19 29.4 °F 25.7 °F 30.13 in East 2.0 mph 4.0 mph 86% 0.00 in
03:24 29.3 °F 25.6 °F 30.12 in ESE 2.0 mph 3.0 mph 86% 0.00 in
03:29 29.2 °F 25.8 °F 30.12 in ESE 3.0 mph 3.0 mph 87% 0.00 in
03:34 29.2 °F 25.5 °F 30.12 in ESE 3.0 mph 5.0 mph 86% 0.00 in
03:39 29.2 °F 25.8 °F 30.12 in ESE 3.0 mph 4.0 mph 87% 0.00 in
03:44 29.1 °F 25.4 °F 30.12 in ESE 3.0 mph 4.0 mph 86% 0.00 in
03:49 29.0 °F 25.4 °F 30.12 in ESE 3.0 mph 4.0 mph 86% 0.00 in
03:54 29.0 °F 25.6 °F 30.12 in ESE 3.0 mph 3.0 mph 87% 0.00 in
03:59 29.0 °F 25.6 °F 30.12 in East 2.0 mph 3.0 mph 87% 0.00 in
04:04 29.0 °F 25.6 °F 30.12 in ESE 3.0 mph 3.0 mph 87% 0.00 in
04:09 28.8 °F 25.1 °F 30.12 in ESE 3.0 mph 4.0 mph 86% 0.00 in
04:14 28.7 °F 25.3 °F 30.12 in ESE 3.0 mph 3.0 mph 87% 0.00 in
04:19 28.6 °F 25.2 °F 30.13 in ESE 3.0 mph 3.0 mph 87% 0.00 in
04:25 28.6 °F 25.2 °F 30.12 in ESE 3.0 mph 4.0 mph 87% 0.00 in
04:30 28.5 °F 25.1 °F 30.13 in ESE 2.0 mph 4.0 mph 87% 0.00 in
04:35 28.3 °F 24.9 °F 30.13 in ESE 3.0 mph 5.0 mph 87% 0.00 in
04:40 28.2 °F 25.1 °F 30.13 in ESE 3.0 mph 4.0 mph 88% 0.00 in
04:45 28.2 °F 25.1 °F 30.13 in ESE 3.0 mph 4.0 mph 88% 0.00 in
04:50 28.2 °F 25.1 °F 30.12 in ESE 4.0 mph 4.0 mph 88% 0.00 in
04:55 28.3 °F 25.2 °F 30.12 in SE 3.0 mph 4.0 mph 88% 0.00 in
05:00 28.4 °F 25.3 °F 30.13 in SE 4.0 mph 5.0 mph 88% 0.00 in
05:05 28.6 °F 25.5 °F 30.13 in ESE 3.0 mph 6.0 mph 88% 0.00 in
05:10 28.7 °F 25.6 °F 30.12 in ESE 4.0 mph 5.0 mph 88% 0.00 in
05:15 28.9 °F 25.8 °F 30.12 in SE 3.0 mph 5.0 mph 88% 0.00 in
05:20 29.0 °F 25.9 °F 30.12 in SE 4.0 mph 5.0 mph 88% 0.00 in
05:25 29.0 °F 25.9 °F 30.13 in ESE 3.0 mph 5.0 mph 88% 0.00 in
05:30 29.2 °F 26.1 °F 30.13 in ESE 4.0 mph 6.0 mph 88% 0.00 in
05:35 29.2 °F 26.1 °F 30.13 in SE 2.0 mph 4.0 mph 88% 0.00 in
05:40 29.1 °F 26.0 °F 30.13 in ESE 4.0 mph 4.0 mph 88% 0.00 in
05:45 29.0 °F 25.9 °F 30.13 in ESE 3.0 mph 4.0 mph 88% 0.00 in
05:50 28.8 °F 26.0 °F 30.14 in SE 2.0 mph 3.0 mph 89% 0.00 in
05:55 28.8 °F 26.0 °F 30.14 in SE 4.0 mph 5.0 mph 89% 0.00 in
06:00 28.9 °F 26.1 °F 30.13 in SE 4.0 mph 5.0 mph 89% 0.00 in
06:05 29.1 °F 26.3 °F 30.14 in SE 2.0 mph 4.0 mph 89% 0.00 in
06:10 29.2 °F 26.4 °F 30.13 in ESE 4.0 mph 4.0 mph 89% 0.00 in
06:16 28.9 °F 26.1 °F 30.12 in ESE 4.0 mph 6.0 mph 89% 0.00 in
06:21 29.1 °F 26.5 °F 30.12 in ESE 6.0 mph 7.0 mph 90% 0.00 in
06:26 29.3 °F 26.7 °F 30.12 in SE 4.0 mph 7.0 mph 90% 0.00 in
06:31 29.4 °F 26.8 °F 30.11 in ESE 5.0 mph 8.0 mph 90% 0.00 in
06:36 29.6 °F 27.0 °F 30.10 in SE 7.0 mph 8.0 mph 90% 0.00 in
06:41 29.8 °F 27.2 °F 30.10 in SE 6.0 mph 9.0 mph 90% 0.00 in
06:46 29.8 °F 27.2 °F 30.09 in SE 5.0 mph 10.0 mph 90% 0.00 in
06:51 29.9 °F 27.1 °F 30.08 in ESE 5.0 mph 11.0 mph 89% 0.00 in
06:56 29.8 °F 27.0 °F 30.08 in ESE 5.0 mph 8.0 mph 89% 0.00 in
07:01 29.8 °F 27.0 °F 30.09 in ESE 4.0 mph 8.0 mph 89% 0.00 in
07:06 29.8 °F 27.0 °F 30.11 in ESE 4.0 mph 5.0 mph 89% 0.00 in
07:11 29.8 °F 27.0 °F 30.11 in ESE 3.0 mph 4.0 mph 89% 0.00 in
07:16 29.7 °F 26.9 °F 30.11 in SE 2.0 mph 5.0 mph 89% 0.00 in
07:21 29.7 °F 26.9 °F 30.11 in SE 3.0 mph 5.0 mph 89% 0.00 in
07:26 29.8 °F 26.7 °F 30.11 in ESE 2.0 mph 4.0 mph 88% 0.00 in
07:31 29.5 °F 26.7 °F 30.11 in ESE 2.0 mph 2.0 mph 89% 0.00 in
07:36 29.4 °F 26.6 °F 30.11 in SE 3.0 mph 3.0 mph 89% 0.00 in
07:41 29.4 °F 26.6 °F 30.11 in ESE 5.0 mph 5.0 mph 89% 0.00 in
07:46 29.5 °F 26.9 °F 30.11 in SE 4.0 mph 6.0 mph 90% 0.00 in
07:51 29.6 °F 27.0 °F 30.11 in SE 4.0 mph 6.0 mph 90% 0.00 in
07:56 29.8 °F 27.2 °F 30.10 in ESE 7.0 mph 7.0 mph 90% 0.00 in
08:01 29.8 °F 27.2 °F 30.09 in SE 6.0 mph 9.0 mph 90% 0.00 in
08:06 29.8 °F 27.2 °F 30.09 in SE 6.0 mph 7.0 mph 90% 0.00 in
08:11 29.8 °F 27.2 °F 30.11 in SSE 3.0 mph 7.0 mph 90% 0.00 in
08:16 29.9 °F 27.6 °F 30.12 in SSE 4.0 mph 6.0 mph 91% 0.00 in
08:21 30.0 °F 27.7 °F 30.12 in SSE 3.0 mph 5.0 mph 91% 0.00 in
08:26 30.1 °F 27.8 °F 30.13 in SE 4.0 mph 5.0 mph 91% 0.00 in
08:31 30.2 °F 27.9 °F 30.13 in SE 3.0 mph 4.0 mph 91% 0.00 in
08:36 30.2 °F 27.9 °F 30.14 in SSE 3.0 mph 4.0 mph 91% 0.00 in
08:41 30.2 °F 27.9 °F 30.14 in SSE 3.0 mph 4.0 mph 91% 0.00 in
08:46 30.6 °F 28.3 °F 30.14 in SE 3.0 mph 4.0 mph 91% 0.00 in
08:51 30.8 °F 28.2 °F 30.14 in SSE 3.0 mph 4.0 mph 90% 0.00 in
08:56 31.3 °F 28.7 °F 30.14 in SE 2.0 mph 5.0 mph 90% 0.00 in
09:01 31.6 °F 28.7 °F 30.13 in SSE 4.0 mph 5.0 mph 89% 0.00 in
09:06 32.1 °F 29.0 °F 30.13 in SE 5.0 mph 6.0 mph 88% 0.00 in
09:11 32.4 °F 29.0 °F 30.14 in SE 5.0 mph 7.0 mph 87% 0.00 in
09:16 32.9 °F 29.5 °F 30.13 in SE 4.0 mph 5.0 mph 87% 0.00 in
09:22 33.6 °F 29.9 °F 30.13 in SE 6.0 mph 8.0 mph 86% 0.00 in
09:27 33.9 °F 29.6 °F 30.13 in SSE 8.0 mph 8.0 mph 84% 0.00 in
09:32 33.9 °F 29.3 °F 30.13 in SE 5.0 mph 8.0 mph 83% 0.00 in
09:37 34.1 °F 29.5 °F 30.13 in SSE 5.0 mph 8.0 mph 83% 0.00 in
09:42 34.7 °F 29.8 °F 30.13 in SSE 4.0 mph 7.0 mph 82% 0.00 in
09:47 35.2 °F 30.0 °F 30.13 in South 5.0 mph 9.0 mph 81% 0.00 in
09:52 35.4 °F 29.5 °F 30.14 in ESE 7.0 mph 8.0 mph 79% 0.00 in
09:57 35.6 °F 30.0 °F 30.13 in SE 6.0 mph 8.0 mph 80% 0.00 in
10:02 35.8 °F 30.2 °F 30.13 in SSE 7.0 mph 9.0 mph 80% 0.00 in
10:07 35.9 °F 30.0 °F 30.13 in SE 8.0 mph 8.0 mph 79% 0.00 in
10:12 36.2 °F 30.6 °F 30.13 in SE 8.0 mph 11.0 mph 80% 0.00 in
10:17 36.4 °F 30.5 °F 30.13 in SSE 5.0 mph 7.0 mph 79% 0.00 in
10:22 37.0 °F 31.1 °F 30.13 in South 5.0 mph 9.0 mph 79% 0.00 in
10:27 37.3 °F 31.1 °F 30.13 in SE 6.0 mph 10.0 mph 78% 0.00 in
10:32 37.4 °F 30.9 °F 30.12 in SE 7.0 mph 9.0 mph 77% 0.00 in
10:37 37.6 °F 30.7 °F 30.12 in SSE 6.0 mph 10.0 mph 76% 0.00 in
10:42 37.7 °F 30.8 °F 30.11 in SSE 6.0 mph 9.0 mph 76% 0.00 in
10:47 38.0 °F 31.1 °F 30.12 in SSE 6.0 mph 8.0 mph 76% 0.00 in
10:52 38.5 °F 31.0 °F 30.12 in SE 5.0 mph 8.0 mph 74% 0.00 in
10:57 39.0 °F 31.4 °F 30.12 in SSE 5.0 mph 9.0 mph 74% 0.00 in
11:02 39.6 °F 31.7 °F 30.12 in South 4.0 mph 7.0 mph 73% 0.00 in
11:07 40.3 °F 31.7 °F 30.12 in SE 7.0 mph 9.0 mph 71% 0.00 in
11:12 40.5 °F 31.5 °F 30.12 in SSE 6.0 mph 9.0 mph 70% 0.00 in
11:17 40.9 °F 32.2 °F 30.12 in SSE 8.0 mph 9.0 mph 71% 0.00 in
11:22 41.4 °F 32.0 °F 30.11 in SSE 7.0 mph 9.0 mph 69% 0.00 in
11:27 41.8 °F 32.8 °F 30.11 in SSE 6.0 mph 10.0 mph 70% 0.00 in
11:32 42.0 °F 32.2 °F 30.11 in South 5.0 mph 7.0 mph 68% 0.00 in
11:37 42.7 °F 32.5 °F 30.10 in South 6.0 mph 9.0 mph 67% 0.00 in
11:42 43.2 °F 33.0 °F 30.10 in SSE 9.0 mph 9.0 mph 67% 0.00 in
11:47 43.4 °F 32.8 °F 30.11 in SSW 6.0 mph 9.0 mph 66% 0.00 in
11:52 43.7 °F 33.8 °F 30.10 in SSE 7.0 mph 9.0 mph 68% 0.00 in
11:57 43.9 °F 32.1 °F 30.10 in SSW 4.0 mph 10.0 mph 63% 0.00 in
12:02 44.3 °F 32.1 °F 30.10 in SW 4.0 mph 11.0 mph 62% 0.00 in
12:07 44.8 °F 32.6 °F 30.10 in South 6.0 mph 7.0 mph 62% 0.00 in
12:12 44.9 °F 32.3 °F 30.09 in SE 5.0 mph 8.0 mph 61% 0.00 in
12:17 45.5 °F 32.4 °F 30.09 in SSW 5.0 mph 10.0 mph 60% 0.00 in
12:22 46.0 °F 32.1 °F 30.09 in SSE 7.0 mph 10.0 mph 58% 0.00 in
12:28 46.8 °F 32.0 °F 30.09 in SSE 8.0 mph 10.0 mph 56% 0.00 in
12:33 47.3 °F 32.0 °F 30.09 in South 6.0 mph 11.0 mph 55% 0.00 in
12:38 47.4 °F 32.5 °F 30.08 in SW 8.0 mph 9.0 mph 56% 0.00 in
12:43 47.8 °F 33.3 °F 30.08 in SSW 6.0 mph 10.0 mph 57% 0.00 in
12:48 48.0 °F 32.2 °F 30.08 in South 6.0 mph 10.0 mph 54% 0.00 in
12:53 48.2 °F 33.3 °F 30.07 in South 4.0 mph 9.0 mph 56% 0.00 in
12:58 48.3 °F 32.9 °F 30.07 in SSW 7.0 mph 10.0 mph 55% 0.00 in
13:03 47.8 °F 33.3 °F 30.07 in SSE 8.0 mph 10.0 mph 57% 0.00 in
13:08 47.2 °F 32.8 °F 30.07 in SW 6.0 mph 11.0 mph 57% 0.00 in
13:13 47.0 °F 32.6 °F 30.06 in South 2.0 mph 7.0 mph 57% 0.00 in
13:18 47.2 °F 33.2 °F 30.06 in SSW 3.0 mph 9.0 mph 58% 0.00 in
13:23 47.5 °F 32.6 °F 30.05 in SSW 3.0 mph 8.0 mph 56% 0.00 in
13:28 48.1 °F 34.0 °F 30.05 in SW 8.0 mph 9.0 mph 58% 0.00 in
13:33 49.1 °F 35.0 °F 30.05 in SSE 9.0 mph 9.0 mph 58% 0.00 in
13:38 49.2 °F 35.1 °F 30.05 in SSW 5.0 mph 9.0 mph 58% 0.00 in
13:43 49.9 °F 34.8 °F 30.05 in SSW 9.0 mph 11.0 mph 56% 0.00 in
13:48 49.9 °F 33.5 °F 30.05 in SSE 9.0 mph 10.0 mph 53% 0.00 in
13:53 50.0 °F 34.0 °F 30.04 in South 7.0 mph 11.0 mph 54% 0.00 in
13:58 49.8 °F 32.9 °F 30.04 in SSW 5.0 mph 9.0 mph 52% 0.00 in
14:03 49.7 °F 33.3 °F 30.04 in SSW 9.0 mph 11.0 mph 53% 0.00 in
14:09 49.9 °F 33.5 °F 30.02 in South 8.0 mph 13.0 mph 53% 0.00 in
14:14 49.9 °F 33.5 °F 30.02 in South 5.0 mph 10.0 mph 53% 0.00 in
14:19 50.2 °F 34.2 °F 30.02 in SSE 6.0 mph 11.0 mph 54% 0.00 in
14:24 50.4 °F 33.9 °F 30.02 in South 4.0 mph 8.0 mph 53% 0.00 in
14:29 50.7 °F 35.1 °F 30.01 in SE 9.0 mph 13.0 mph 55% 0.00 in
14:34 50.7 °F 35.1 °F 30.01 in SSE 8.0 mph 11.0 mph 55% 0.00 in
14:39 50.9 °F 33.9 °F 30.00 in SSW 10.0 mph 12.0 mph 52% 0.00 in
14:44 50.9 °F 33.9 °F 30.00 in SSW 7.0 mph 10.0 mph 52% 0.00 in
14:49 51.2 °F 34.2 °F 30.00 in SSW 6.0 mph 11.0 mph 52% 0.00 in
14:54 51.6 °F 34.6 °F 29.99 in SE 6.0 mph 9.0 mph 52% 0.00 in
14:59 51.5 °F 34.5 °F 29.99 in SSW 6.0 mph 11.0 mph 52% 0.00 in
15:04 51.6 °F 35.0 °F 29.99 in SSW 5.0 mph 9.0 mph 53% 0.00 in
15:09 52.1 °F 35.0 °F 29.99 in SSW 10.0 mph 10.0 mph 52% 0.00 in
15:14 52.5 °F 35.4 °F 29.98 in SW 4.0 mph 9.0 mph 52% 0.00 in
15:19 52.9 °F 35.3 °F 29.98 in South 6.0 mph 11.0 mph 51% 0.00 in
15:24 53.0 °F 34.4 °F 29.98 in South 9.0 mph 11.0 mph 49% 0.00 in
15:29 53.1 °F 35.5 °F 29.99 in SSW 4.0 mph 12.0 mph 51% 0.00 in
15:34 53.4 °F 35.2 °F 29.99 in SW 7.0 mph 10.0 mph 50% 0.00 in
15:39 53.3 °F 34.7 °F 29.98 in SSE 4.0 mph 9.0 mph 49% 0.00 in
15:44 53.3 °F 36.1 °F 29.98 in SSE 13.0 mph 13.0 mph 52% 0.00 in
15:49 53.4 °F 35.7 °F 29.98 in South 9.0 mph 10.0 mph 51% 0.00 in
15:54 53.7 °F 36.0 °F 29.98 in SSE 4.0 mph 6.0 mph 51% 0.00 in
16:00 53.9 °F 35.2 °F 29.98 in SSW 5.0 mph 7.0 mph 49% 0.00 in
16:05 54.5 °F 36.3 °F 29.98 in South 5.0 mph 12.0 mph 50% 0.00 in
16:10 54.7 °F 35.9 °F 29.98 in SSE 3.0 mph 12.0 mph 49% 0.00 in
16:15 55.1 °F 36.8 °F 29.98 in SSW 6.0 mph 6.0 mph 50% 0.00 in
16:20 55.3 °F 36.0 °F 29.99 in SSW 6.0 mph 8.0 mph 48% 0.00 in
16:25 55.3 °F 36.5 °F 29.98 in South 10.0 mph 12.0 mph 49% 0.00 in
16:30 55.2 °F 35.9 °F 29.98 in South 6.0 mph 9.0 mph 48% 0.00 in
16:35 55.1 °F 35.8 °F 29.99 in SW 6.0 mph 11.0 mph 48% 0.00 in
16:40 55.2 °F 36.9 °F 29.99 in SSW 5.0 mph 9.0 mph 50% 0.00 in
16:45 55.3 °F 36.5 °F 29.98 in SW 6.0 mph 10.0 mph 49% 0.00 in
16:50 55.2 °F 36.4 °F 29.98 in South 6.0 mph 11.0 mph 49% 0.00 in
16:55 55.2 °F 36.4 °F 29.99 in WSW 6.0 mph 8.0 mph 49% 0.00 in
17:00 55.2 °F 36.4 °F 29.99 in SSW 6.0 mph 8.0 mph 49% 0.00 in
17:05 55.2 °F 35.9 °F 29.99 in SSW 8.0 mph 10.0 mph 48% 0.00 in
17:10 54.8 °F 35.5 °F 29.99 in South 7.0 mph 9.0 mph 48% 0.00 in
17:15 54.1 °F 35.9 °F 29.99 in SSE 3.0 mph 9.0 mph 50% 0.00 in
17:20 53.7 °F 36.0 °F 29.99 in South 4.0 mph 10.0 mph 51% 0.00 in
17:25 53.6 °F 35.9 °F 29.99 in SSW 8.0 mph 8.0 mph 51% 0.00 in
17:30 53.6 °F 36.4 °F 30.00 in South 2.0 mph 5.0 mph 52% 0.00 in
17:35 53.4 °F 36.2 °F 30.00 in South 3.0 mph 4.0 mph 52% 0.00 in
17:40 53.3 °F 36.1 °F 30.00 in South 2.0 mph 4.0 mph 52% 0.00 in
17:45 53.3 °F 35.7 °F 30.00 in SW 6.0 mph 6.0 mph 51% 0.00 in
17:50 53.3 °F 35.7 °F 30.01 in SSW 4.0 mph 6.0 mph 51% 0.00 in
17:55 53.3 °F 36.1 °F 30.01 in South 5.0 mph 6.0 mph 52% 0.00 in
18:00 53.2 °F 35.6 °F 30.00 in ESE 3.0 mph 5.0 mph 51% 0.00 in
18:05 53.1 °F 35.5 °F 30.00 in South 4.0 mph 6.0 mph 51% 0.00 in
18:10 53.1 °F 35.5 °F 30.00 in SSE 2.0 mph 4.0 mph 51% 0.00 in
18:15 52.9 °F 36.2 °F 30.00 in SSW 2.0 mph 4.0 mph 53% 0.00 in
18:20 52.5 °F 36.3 °F 29.99 in SSE 3.0 mph 4.0 mph 54% 0.00 in
18:25 52.1 °F 36.0 °F 29.99 in SSW 2.0 mph 4.0 mph 54% 0.00 in
18:30 52.0 °F 36.3 °F 29.99 in South 3.0 mph 4.0 mph 55% 0.00 in
18:35 51.7 °F 36.5 °F 29.99 in SSE 2.0 mph 5.0 mph 56% 0.00 in
18:38 51.4 °F 37.1 °F 30.00 in SSE 1.0 mph 4.0 mph 58% 0.00 in
18:43 51.2 °F 36.5 °F 30.00 in South 3.0 mph 4.0 mph 57% 0.00 in
18:48 51.3 °F 36.2 °F 29.99 in ESE 4.0 mph 6.0 mph 56% 0.00 in
18:53 51.6 °F 36.9 °F 29.99 in SSE 6.0 mph 6.0 mph 57% 0.00 in
18:58 51.6 °F 37.3 °F 29.99 in SSE 4.0 mph 6.0 mph 58% 0.00 in
19:03 51.4 °F 37.1 °F 29.98 in SSE 7.0 mph 7.0 mph 58% 0.00 in
19:08 51.3 °F 36.6 °F 29.98 in SSE 6.0 mph 8.0 mph 57% 0.00 in
19:13 51.4 °F 37.1 °F 29.99 in SE 4.0 mph 6.0 mph 58% 0.00 in
19:18 51.4 °F 36.7 °F 29.99 in SSE 3.0 mph 6.0 mph 57% 0.00 in
19:23 51.5 °F 37.2 °F 29.99 in SSW 4.0 mph 6.0 mph 58% 0.00 in
19:28 51.5 °F 37.2 °F 30.00 in SE 3.0 mph 4.0 mph 58% 0.00 in
19:34 51.5 °F 37.7 °F 30.00 in SSE 4.0 mph 6.0 mph 59% 0.00 in
19:39 51.4 °F 37.1 °F 30.00 in SSE 5.0 mph 5.0 mph 58% 0.00 in
19:44 51.5 °F 37.2 °F 30.00 in SSW 4.0 mph 6.0 mph 58% 0.00 in
19:49 51.7 °F 37.4 °F 30.00 in SSW 3.0 mph 6.0 mph 58% 0.00 in
19:54 51.7 °F 37.4 °F 30.01 in SSE 3.0 mph 5.0 mph 58% 0.00 in
19:59 51.8 °F 37.1 °F 30.01 in SSW 2.0 mph 5.0 mph 57% 0.00 in
20:04 51.8 °F 37.5 °F 30.01 in SSW 2.0 mph 3.0 mph 58% 0.00 in
20:09 51.7 °F 37.4 °F 30.01 in SSW 3.0 mph 4.0 mph 58% 0.00 in
20:14 51.7 °F 37.4 °F 30.01 in South 3.0 mph 6.0 mph 58% 0.00 in
20:19 51.6 °F 37.3 °F 30.01 in SSW 4.0 mph 5.0 mph 58% 0.00 in
20:24 51.6 °F 37.8 °F 30.01 in South 1.0 mph 4.0 mph 59% 0.00 in
20:29 51.4 °F 37.6 °F 30.01 in South 2.0 mph 4.0 mph 59% 0.00 in
20:34 51.4 °F 38.0 °F 30.01 in South 2.0 mph 3.0 mph 60% 0.00 in
20:39 51.2 °F 38.6 °F 30.00 in SE 1.0 mph 2.0 mph 62% 0.00 in
20:44 50.8 °F 38.3 °F 30.00 in SE 2.0 mph 3.0 mph 62% 0.00 in
20:49 50.9 °F 38.4 °F 30.00 in SE 4.0 mph 4.0 mph 62% 0.00 in
20:54 51.0 °F 37.6 °F 30.00 in SSW 3.0 mph 5.0 mph 60% 0.00 in
20:59 51.1 °F 37.7 °F 30.00 in SSE 3.0 mph 4.0 mph 60% 0.00 in
21:04 51.1 °F 38.1 °F 30.00 in South 2.0 mph 4.0 mph 61% 0.00 in
21:09 51.0 °F 38.5 °F 30.00 in SSE 1.0 mph 2.0 mph 62% 0.00 in
21:14 51.0 °F 38.0 °F 30.00 in Calm   2.0 mph 61% 0.00 in
21:19 50.9 °F 38.4 °F 30.00 in Calm   2.0 mph 62% 0.00 in
21:24 50.9 °F 38.0 °F 30.01 in Calm   1.0 mph 61% 0.00 in
21:29 50.9 °F 38.4 °F 30.01 in SSE 1.0 mph 1.0 mph 62% 0.00 in
21:34 50.9 °F 38.0 °F 30.01 in Calm   1.0 mph 61% 0.00 in
21:39 50.9 °F 37.5 °F 30.01 in SSE 1.0 mph 1.0 mph 60% 0.00 in
21:44 50.9 °F 38.0 °F 30.01 in SSE 1.0 mph 1.0 mph 61% 0.00 in
21:49 50.8 °F 38.3 °F 30.02 in Calm   1.0 mph 62% 0.00 in
21:54 50.8 °F 38.3 °F 30.01 in Calm   1.0 mph 62% 0.00 in
21:59 50.7 °F 37.8 °F 30.01 in Calm     61% 0.00 in
22:04 50.6 °F 38.1 °F 30.01 in Calm     62% 0.00 in
22:09 50.6 °F 37.7 °F 30.01 in Calm     61% 0.00 in
22:14 50.5 °F 37.6 °F 30.01 in Calm     61% 0.00 in
22:19 50.6 °F 37.7 °F 30.01 in East 2.0 mph 2.0 mph 61% 0.00 in
22:24 50.5 °F 38.4 °F 30.01 in East 2.0 mph 2.0 mph 63% 0.00 in
22:29 50.4 °F 38.3 °F 30.01 in East 1.0 mph 1.0 mph 63% 0.00 in
22:34 50.3 °F 39.4 °F 30.00 in NE 1.0 mph 2.0 mph 66% 0.00 in
22:40 49.9 °F 38.6 °F 30.00 in NE 1.0 mph 2.0 mph 65% 0.00 in
22:45 49.7 °F 38.8 °F 30.00 in NE 1.0 mph 1.0 mph 66% 0.00 in
22:50 49.8 °F 40.0 °F 30.00 in Calm     69% 0.00 in
22:55 49.5 °F 40.5 °F 30.00 in Calm   1.0 mph 71% 0.00 in
23:00 49.5 °F 39.4 °F 30.00 in Calm   1.0 mph 68% 0.00 in
23:05 49.5 °F 39.4 °F 30.00 in Calm     68% 0.00 in
23:10 49.5 °F 39.4 °F 30.00 in East 1.0 mph 1.0 mph 68% 0.00 in
23:15 49.6 °F 41.0 °F 30.00 in Calm   1.0 mph 72% 0.00 in
23:20 49.2 °F 39.8 °F 30.00 in NE 1.0 mph 2.0 mph 70% 0.00 in
23:25 49.3 °F 39.2 °F 30.00 in NE 1.0 mph 1.0 mph 68% 0.00 in
23:30 49.5 °F 39.0 °F 30.00 in Calm   1.0 mph 67% 0.00 in
23:35 49.8 °F 38.5 °F 30.00 in Calm   1.0 mph 65% 0.00 in
23:40 50.0 °F 38.3 °F 30.00 in ENE 1.0 mph 2.0 mph 64% 0.00 in
23:45 50.0 °F 39.1 °F 30.00 in ESE 1.0 mph 1.0 mph 66% 0.00 in
23:46 50.0 °F 39.1 °F 30.00 in ESE 1.0 mph 1.0 mph 66% 0.00 in
23:51 49.8 °F 40.0 °F 30.00 in ESE 4.0 mph 4.0 mph 69% 0.00 in
23:56 49.8 °F 39.7 °F 30.00 in East 2.0 mph 3.0 mph 68% 0.00 in
Compliments of Weather Underground